FW6919 Weather Reports


time (UTC)temp
F
wind
direction
speed
knots
gust
knots
rain 1hr
in
rain 24hr
in
rain mn
in
humidity
%
barometer
mb
20260906231824 98 112 5.2 11.3 0.00 0.00 0.00 44 1011.5
20260906231323 98 129 3.5 11.3 0.00 0.00 0.00 45 1011.7
20260906230824 98 132 6.1 12.2 0.00 0.00 0.00 45 1011.6
20260906230324 98 127 6.1 12.2 0.00 0.00 0.00 44 1011.6
20260906225822 98 158 5.2 11.3 0.00 0.00 0.00 45 1011.5
20260906225324 98 165 1.7 8.7 0.00 0.00 0.00 45 1011.6
20260906224823 98 154 5.2 8.7 0.00 0.00 0.00 44 1011.7
20260906224322 98 136 2.6 8.7 0.00 0.00 0.00 44 1011.5
20260906223824 98 77 1.7 9.6 0.00 0.00 0.00 44 1011.6
20260906223322 98 148 3.5 11.3 0.00 0.00 0.00 43 1011.6
20260906222823 98 117 8.7 13.9 0.00 0.00 0.00 44 1011.8
20260906222323 98 160 5.2 13.9 0.00 0.00 0.00 45 1011.8
20260906221822 98 186 7.8 13.0 0.00 0.00 0.00 45 1011.8
20260906221324 99 124 4.3 10.4 0.00 0.00 0.00 44 1011.8
20260906220823 99 55 3.5 10.4 0.00 0.00 0.00 44 1011.8
20260906220320 99 84 1.7 13.9 0.00 0.00 0.00 44 1011.8
20260906215820 98 73 8.7 13.9 0.00 0.00 0.00 46 1011.8
20260906215320 98 173 1.7 9.6 0.00 0.00 0.00 45 1011.9
20260906214819 98 162 4.3 7.0 0.00 0.00 0.00 46 1012.0
20260906214318 98 51 6.1 7.0 0.00 0.00 0.00 45 1012.0
20260906213819 98 113 3.5 11.3 0.00 0.00 0.00 45 1012.2
20260906213319 98 94 0.9 11.3 0.00 0.00 0.00 45 1012.3
20260906212819 98 151 7.0 9.6 0.00 0.00 0.00 45 1012.3
20260906212318 98 125 2.6 12.2 0.00 0.00 0.00 46 1012.3
20260906211817 98 111 3.5 12.2 0.00 0.00 0.00 45 1012.4
20260906211317 99 99 10.4 9.6 0.00 0.00 0.00 46 1012.4
20260906210817 98 83 4.3 10.4 0.00 0.00 0.00 45 1012.6
20260906210316 98 138 1.7 10.4 0.00 0.00 0.00 46 1012.6
20260906205817 98 138 8.7 10.4 0.00 0.00 0.00 46 1012.6
20260906205316 98 101 7.0 12.2 0.00 0.00 0.00 46 1012.7
20260906204815 98 142 3.5 12.2 0.00 0.00 0.00 46 1012.7
20260906204316 98 71 2.6 9.6 0.00 0.00 0.00 46 1012.8
20260906203816 97 135 4.3 9.6 0.00 0.00 0.00 47 1012.8
20260906203313 97 94 3.5 9.6 0.00 0.00 0.00 47 1013.0
20260906202813 97 148 7.0 8.7 0.00 0.00 0.00 46 1013.0
20260906202315 97 159 4.3 10.4 0.00 0.00 0.00 46 1013.0
20260906201813 97 148 7.0 10.4 0.00 0.00 0.00 47 1013.1
20260906201315 97 147 3.5 13.0 0.00 0.00 0.00 47 1013.0
20260906200813 97 145 1.7 13.0 0.00 0.00 0.00 46 1013.2
20260906200314 97 116 7.8 13.0 0.00 0.00 0.00 47 1013.3
20260906195814 97 126 3.5 11.3 0.00 0.00 0.00 47 1013.3
20260906195311 97 150 4.3 12.2 0.00 0.00 0.00 48 1013.4
20260906194813 96 112 7.0 12.2 0.00 0.00 0.00 48 1013.4
20260906194312 97 139 4.3 13.9 0.00 0.00 0.00 48 1013.4
20260906193818 96 134 3.5 13.9 0.00 0.00 0.00 48 1013.5
20260906193313 97 132 7.0 12.2 0.00 0.00 0.00 48 1013.4
20260906192814 96 67 2.6 11.3 0.00 0.00 0.00 49 1013.6
20260906192313 96 126 8.7 11.3 0.00 0.00 0.00 49 1013.6
20260906191815 96 134 3.5 12.2 0.00 0.00 0.00 49 1013.7
20260906191314 96 160 8.7 12.2 0.00 0.00 0.00 50 1013.9
20260906190815 96 139 7.8 12.2 0.00 0.00 0.00 50 1013.9
20260906190312 96 116 1.7 12.2 0.00 0.00 0.00 50 1014.0
20260906185813 96 83 2.6 11.3 0.00 0.00 0.00 50 1013.9
20260906185314 95 145 1.7 10.4 0.00 0.00 0.00 53 1014.0
20260906184812 95 78 3.5 11.3 0.00 0.00 0.00 53 1014.1
20260906184312 95 122 7.8 11.3 0.00 0.00 0.00 52 1014.1
20260906183813 95 235 0.9 13.0 0.00 0.00 0.00 53 1014.2
20260906183312 95 68 7.0 13.0 0.00 0.00 0.00 52 1014.2
20260906182811 95 67 7.0 10.4 0.00 0.00 0.00 52 1014.3
20260906182311 94 79 4.3 10.4 0.00 0.00 0.00 54 1014.4
20260906181811 95 130 2.6 10.4 0.00 0.00 0.00 52 1014.4
20260906181313 95 97 3.5 12.2 0.00 0.00 0.00 53 1014.5
20260906180810 95 181 3.5 13.0 0.00 0.00 0.00 52 1014.6
20260906180312 94 180 9.6 13.0 0.00 0.00 0.00 53 1014.6
20260906175812 95 135 7.0 12.2 0.00 0.00 0.00 55 1014.7
20260906175314 94 89 4.3 12.2 0.00 0.00 0.00 54 1014.8
20260906174812 94 175 7.8 10.4 0.00 0.00 0.00 54 1014.9
20260906174312 94 227 5.2 9.6 0.00 0.00 0.00 54 1014.8
20260906173811 94 61 3.5 9.6 0.00 0.00 0.00 54 1015.0
20260906173312 94 136 7.0 8.7 0.00 0.00 0.00 55 1015.2
20260906172814 93 160 1.7 10.4 0.00 0.00 0.00 56 1015.1
20260906172305 93 154 6.1 10.4 0.00 0.00 0.00 57 1015.2
20260906171759 93 107 5.2 10.4 0.00 0.00 0.00 55 1015.4
20260906171300 94 126 2.6 7.8 0.00 0.00 0.00 56 1015.4
20260906170758 93 171 4.3 9.6 0.00 0.00 0.00 57 1015.4
20260906170258 93 207 4.3 9.6 0.00 0.00 0.00 57 1015.4
20260906165756 93 150 1.7 9.6 0.00 0.00 0.00 57 1015.6
20260906165258 93 55 6.1 9.6 0.00 0.00 0.00 57 1015.5
20260906164645 93 85 0.9 7.8 0.00 0.00 0.00 58 1015.8
20260906164153 92 76 6.1 9.6 0.00 0.00 0.00 59 1015.8
20260906163547 92 157 7.0 9.6 0.00 0.00 0.00 59 1015.8
20260906163052 92 113 3.5 8.7 0.00 0.00 0.00 59 1015.7
20260906162447 92 96 1.7 8.7 0.00 0.00 0.00 60 1015.7
20260906161951 91 110 3.5 7.8 0.00 0.00 0.00 61 1015.8
20260906161544 91 145 0.9 7.0 0.00 0.00 0.00 61 1015.8
20260906161039 90 177 1.7 8.7 0.00 0.00 0.00 63 1015.7
20260906160543 91 210 4.3 8.7 0.00 0.00 0.00 63 1015.7
20260906160045 91 120 6.1 7.0 0.00 0.00 0.00 63 1015.7
20260906155552 90 225 2.6 7.0 0.00 0.00 0.00 64 1015.8
20260906154949 90 162 4.3 6.1 0.00 0.00 0.00 65 1015.8
20260906154352 90 88 2.6 6.1 0.00 0.00 0.00 65 1015.7
20260906153759 89 219 2.6 7.0 0.00 0.00 0.00 66 1015.7
20260906153320 89 136 4.3 7.0 0.00 0.00 0.00 67 1015.7
20260906152839 89 127 1.7 7.0 0.00 0.00 0.00 67 1015.5
20260906152251 89 143 4.3 7.0 0.00 0.00 0.00 69 1015.5
20260906151703 88 127 1.7 7.0 0.00 0.00 0.00 69 1015.5
20260906151228 88 128 0.9 6.1 0.00 0.00 0.00 68 1015.3
20260906150646 88 99 0.9 5.2 0.00 0.00 0.00 68 1015.4
20260906150058 88 106 1.7 5.2 0.00 0.00 0.00 69 1015.3
20260906145619 87 123 1.7 5.2 0.00 0.00 0.00 70 1015.2
20260906145142 87 132 1.7 5.2 0.00 0.00 0.00 71 1015.2
20260906144605 87 126 2.6 5.2 0.00 0.00 0.00 71 1015.3
20260906144133 86 107 3.5 3.5 0.00 0.00 0.00 72 1015.2
20260906143555 86 134 0.9 4.3 0.00 0.00 0.00 73 1015.2
20260906143125 85 132 1.7 4.3 0.00 0.00 0.00 73 1015.3
20260906142545 85 142 3.5 3.5 0.00 0.00 0.00 73 1015.3
20260906141957 85 117 2.6 5.2 0.00 0.00 0.00 74 1015.3
20260906141526 85 115 1.7 5.2 0.00 0.00 0.00 73 1015.3
20260906140954 85 89 2.6 5.2 0.00 0.00 0.00 74 1015.3
20260906140528 85 55 3.5 5.2 0.00 0.00 0.00 73 1015.2
20260906135955 84 49 2.6 5.2 0.00 0.00 0.00 75 1015.3
20260906135535 84 49 2.6 3.5 0.00 0.00 0.00 76 1015.3
20260906135014 83 49 1.7 3.5 0.00 0.00 0.00 76 1015.3
20260906134454 83 128 2.6 2.6 0.00 0.00 0.00 78 1015.2
20260906134039 82 131 0.9 4.3 0.00 0.00 0.00 78 1015.2
20260906133523 82 132 0.9 6.1 0.00 0.00 0.00 79 1015.2
20260906133016 82 132 2.6 6.1 0.00 0.00 0.00 79 1015.2
20260906132458 81 163 1.7 4.3 0.00 0.00 0.00 81 1015.2
20260906131946 81 167 2.6 4.3 0.00 0.00 0.00 81 1015.3
20260906131542 81 168 0.9 4.3 0.00 0.00 0.00 82 1015.2
20260906131028 80 169 1.7 3.5 0.00 0.00 0.00 82 1015.3
20260906130514 80 169 1.7 3.5 0.00 0.00 0.00 83 1015.2
20260906125954 79 169 0.9 1.7 0.00 0.00 0.00 84 1015.2
20260906125444 79 169 0.9 1.7 0.00 0.00 0.00 85 1015.2
20260906124931 79 0 0.0 2.6 0.00 0.00 0.00 85 1015.1
20260906124425 78 35 1.7 2.6 0.00 0.00 0.00 86 1015.0
20260906123922 78 34 1.7 2.6 0.00 0.00 0.00 86 1015.1
20260906123413 78 30 0.9 1.7 0.00 0.00 0.00 86 1014.9
20260906122913 78 27 0.9 1.7 0.00 0.00 0.00 85 1015.0
20260906122416 78 0 0.0 1.7 0.00 0.00 0.00 85 1014.8
20260906121913 78 26 1.7 1.7 0.00 0.00 0.00 85 1014.8
20260906121413 78 0 0.0 1.7 0.00 0.00 0.00 85 1014.7
20260906120904 78 0 0.0 1.7 0.00 0.00 0.00 85 1014.6
20260906120405 78 27 0.9 1.7 0.00 0.00 0.00 85 1014.6
20260906115904 78 0 0.0 0.0 0.00 0.00 0.00 85 1014.5
20260906115402 78 0 0.0 0.0 0.00 0.00 0.00 85 1014.6
20260906114900 78 0 0.0 0.0 0.00 0.00 0.00 85 1014.4
20260906114402 78 0 0.0 0.0 0.00 0.00 0.00 85 1014.4
20260906113902 78 0 0.0 0.0 0.00 0.00 0.00 84 1014.2
20260906113402 78 0 0.0 0.0 0.00 0.00 0.00 85 1014.2
20260906112900 78 0 0.0 0.0 0.00 0.00 0.00 84 1014.4
20260906112402 78 0 0.0 0.0 0.00 0.00 0.00 84 1014.2
20260906111859 78 0 0.0 0.0 0.00 0.00 0.00 84 1014.2
20260906111359 78 0 0.0 1.7 0.00 0.00 0.00 84 1014.1
20260906110859 79 0 0.0 2.6 0.00 0.00 0.00 84 1014.1
20260906110400 79 0 0.0 2.6 0.00 0.00 0.00 84 1014.2
20260906105902 79 22 0.9 2.6 0.00 0.00 0.00 83 1014.1
20260906105359 79 22 0.9 3.5 0.00 0.00 0.00 83 1014.1
20260906104859 79 21 0.9 3.5 0.00 0.00 0.00 83 1014.0
20260906104400 79 20 1.7 3.5 0.00 0.00 0.00 83 1014.0
20260906103859 79 0 0.0 1.7 0.00 0.00 0.00 83 1014.1
20260906103402 79 0 0.0 1.7 0.00 0.00 0.00 82 1014.1
20260906102858 79 22 0.9 1.7 0.00 0.00 0.00 82 1014.1
20260906102356 80 22 0.9 1.7 0.00 0.00 0.00 81 1013.9
20260906101857 80 22 0.9 0.9 0.00 0.00 0.00 80 1013.9
20260906101357 80 0 0.0 0.0 0.00 0.00 0.00 80 1013.9
20260906100855 80 0 0.0 0.9 0.00 0.00 0.00 80 1013.9
20260906100356 80 0 0.0 0.9 0.00 0.00 0.00 80 1013.8
20260906095855 80 0 0.0 1.7 0.00 0.00 0.00 80 1013.8
20260906095355 80 0 0.0 1.7 0.00 0.00 0.00 79 1013.7
20260906094854 81 0 0.0 1.7 0.00 0.00 0.00 79 1013.7
20260906094355 81 0 0.0 1.7 0.00 0.00 0.00 79 1013.7
20260906093853 81 169 0.9 1.7 0.00 0.00 0.00 78 1013.6
20260906093353 81 0 0.0 1.7 0.00 0.00 0.00 78 1013.6
20260906092855 81 169 0.9 1.7 0.00 0.00 0.00 78 1013.4
20260906092353 81 170 1.7 1.7 0.00 0.00 0.00 78 1013.4
20260906091851 81 170 0.9 3.5 0.00 0.00 0.00 78 1013.3
20260906091353 81 170 0.9 4.3 0.00 0.00 0.00 78 1013.4
20260906090851 81 170 1.7 4.3 0.00 0.00 0.00 78 1013.4
20260906090352 81 170 1.7 3.5 0.00 0.00 0.00 77 1013.3
20260906085852 82 170 3.5 4.3 0.00 0.00 0.00 77 1013.3
20260906085352 82 171 0.9 5.2 0.00 0.00 0.00 76 1013.3
20260906084851 82 173 0.9 5.2 0.00 0.00 0.00 76 1013.3
20260906084351 82 176 1.7 3.5 0.00 0.00 0.00 76 1013.4
20260906083848 82 180 0.9 4.3 0.00 0.00 0.00 76 1013.3
20260906083351 82 182 1.7 4.3 0.00 0.00 0.00 76 1013.3
20260906082850 83 198 1.7 5.2 0.00 0.00 0.00 75 1013.4
20260906082349 83 188 1.7 7.0 0.00 0.00 0.00 75 1013.4
20260906081849 83 178 2.6 7.0 0.00 0.00 0.00 75 1013.4
20260906081348 83 172 4.3 6.1 0.00 0.00 0.00 75 1013.3
20260906080849 83 205 3.5 7.0 0.00 0.00 0.00 74 1013.3
20260906080348 83 223 2.6 7.0 0.00 0.00 0.00 74 1013.2
20260906075849 83 218 3.5 7.0 0.00 0.00 0.00 74 1013.3
20260906075348 83 221 4.3 7.0 0.00 0.00 0.00 74 1013.3
20260906074848 83 216 4.3 4.3 0.00 0.00 0.00 74 1013.5
20260906074347 83 214 2.6 7.0 0.00 0.00 0.00 74 1013.6
20260906073848 84 233 3.5 7.0 0.00 0.00 0.00 74 1013.6
20260906073345 84 164 3.5 8.7 0.00 0.00 0.00 74 1013.6
20260906072846 84 200 1.7 8.7 0.00 0.00 0.00 73 1013.7
20260906072345 84 188 2.6 8.7 0.00 0.00 0.00 73 1013.7
20260906071945 84 141 6.1 7.0 0.00 0.00 0.00 74 1013.7
20260906071446 84 191 2.6 7.0 0.00 0.00 0.00 73 1013.6
20260906070951 84 180 4.3 5.2 0.00 0.00 0.00 74 1013.7
20260906070451 84 182 2.6 7.0 0.00 0.00 0.00 74 1013.6
20260906070046 84 182 2.6 7.0 0.00 0.00 0.00 74 1013.6
20260906065644 84 184 2.6 7.0 0.00 0.00 0.00 74 1013.6
20260906065144 84 199 2.6 6.1 0.00 0.00 0.00 74 1013.7
20260906064642 84 174 2.6 6.1 0.00 0.00 0.00 74 1013.9
20260906064144 84 187 2.6 6.1 0.00 0.00 0.00 73 1013.8
20260906063643 84 192 3.5 4.3 0.00 0.00 0.00 73 1013.7
20260906063144 84 205 2.6 5.2 0.00 0.00 0.00 73 1013.7
20260906062643 84 209 1.7 5.2 0.00 0.00 0.00 73 1013.8
20260906062143 84 193 2.6 5.2 0.00 0.00 0.00 73 1013.7
20260906061642 84 194 0.9 5.2 0.00 0.00 0.00 73 1013.7
20260906061141 84 173 4.3 4.3 0.00 0.00 0.00 73 1013.6
20260906060641 84 169 1.7 4.3 0.00 0.00 0.00 73 1013.8
20260906060141 85 169 1.7 4.3 0.00 0.00 0.00 73 1013.8
20260906055641 85 0 0.0 4.3 0.00 0.00 0.00 72 1013.9
20260906055140 85 169 3.5 4.3 0.00 0.00 0.00 72 1013.9
20260906054640 85 169 1.7 5.2 0.00 0.00 0.00 72 1013.8
20260906054140 85 169 0.9 5.2 0.00 0.00 0.00 71 1013.8
20260906053639 85 175 1.7 4.3 0.00 0.00 0.00 71 1013.7
20260906053141 85 172 1.7 5.2 0.00 0.00 0.00 71 1013.7
20260906052638 86 173 2.6 5.2 0.00 0.00 0.00 70 1013.8
20260906052140 86 180 3.5 6.1 0.00 0.00 0.00 70 1013.7
20260906051637 86 167 2.6 6.1 0.00 0.00 0.00 70 1014.0
20260906051140 86 158 1.7 6.1 0.00 0.00 0.00 69 1013.9
20260906050638 86 172 1.7 6.1 0.00 0.00 0.00 69 1014.0
20260906050138 86 166 2.6 6.1 0.00 0.00 0.00 69 1013.9
20260906045636 86 169 1.7 5.2 0.00 0.00 0.00 69 1013.9
20260906045137 86 163 1.7 5.2 0.00 0.00 0.00 68 1013.9
20260906044635 86 161 3.5 5.2 0.00 0.00 0.00 68 1014.0
20260906044137 86 167 2.6 5.2 0.00 0.00 0.00 68 1013.9
20260906043634 87 166 2.6 5.2 0.00 0.00 0.00 67 1013.9
20260906043136 87 163 1.7 6.1 0.00 0.00 0.00 67 1013.7
20260906042635 87 146 1.7 6.1 0.00 0.00 0.00 67 1013.5
20260906042135 87 185 2.6 6.1 0.00 0.00 0.00 67 1013.6
20260906041635 87 173 4.3 8.7 0.00 0.00 0.00 66 1013.6
20260906041134 87 163 3.5 8.7 0.00 0.00 0.00 66 1013.6
20260906040634 87 172 5.2 7.8 0.00 0.00 0.00 66 1013.7
20260906040133 87 158 2.6 7.8 0.00 0.00 0.00 65 1013.6
20260906035632 88 168 5.2 8.7 0.00 0.00 0.00 65 1013.5
20260906035133 88 168 3.5 9.6 0.00 0.00 0.00 65 1013.7
20260906034633 88 165 3.5 10.4 0.00 0.00 0.00 65 1013.7
20260906034132 88 201 3.5 10.4 0.00 0.00 0.00 64 1013.7
20260906033632 88 188 4.3 9.6 0.00 0.00 0.00 64 1013.7
20260906033131 88 184 2.6 8.7 0.00 0.00 0.00 64 1013.7
20260906032632 88 145 7.8 8.7 0.00 0.00 0.00 64 1013.8
20260906032131 88 148 5.2 8.7 0.00 0.00 0.00 63 1013.8
20260906031632 88 175 5.2 8.7 0.00 0.00 0.00 63 1013.8
20260906031130 88 142 2.6 8.7 0.00 0.00 0.00 63 1013.7
20260906030631 89 153 2.6 7.8 0.00 0.00 0.00 63 1013.7
20260906030131 89 165 5.2 8.7 0.00 0.00 0.00 62 1013.7
20260906025632 89 144 2.6 9.6 0.00 0.00 0.00 62 1013.8
20260906025130 89 162 7.0 11.3 0.00 0.00 0.00 61 1013.7
20260906024630 89 188 3.5 11.3 0.00 0.00 0.00 61 1013.6
20260906024129 89 148 2.6 11.3 0.00 0.00 0.00 61 1013.4
20260906023628 89 221 7.8 13.9 0.00 0.00 0.00 60 1013.4
20260906023130 90 176 6.1 13.9 0.00 0.00 0.00 60 1013.3
20260906022629 90 173 8.7 12.2 0.00 0.00 0.00 60 1013.2
20260906022129 90 165 4.3 12.2 0.00 0.00 0.00 60 1013.2
20260906021629 90 169 5.2 12.2 0.00 0.00 0.00 59 1013.1
20260906021129 90 143 11.3 10.4 0.00 0.00 0.00 59 1013.0
20260906020630 91 161 3.5 10.4 0.00 0.00 0.00 59 1012.9
20260906020130 91 140 6.1 9.6 0.00 0.00 0.00 58 1012.8
20260906015628 91 146 2.6 13.9 0.00 0.00 0.00 58 1012.8
20260906015127 91 113 6.1 13.9 0.00 0.00 0.00 57 1012.6
20260906014628 91 195 4.3 13.0 0.00 0.00 0.00 57 1012.5
20260906014128 92 26 4.3 13.0 0.00 0.00 0.00 56 1012.4
20260906013629 92 155 5.2 13.0 0.00 0.00 0.00 55 1012.3
20260906013129 93 128 8.7 13.0 0.00 0.00 0.00 54 1012.3
20260906012627 93 156 6.1 14.8 0.00 0.00 0.00 53 1012.1
20260906012128 94 136 7.0 14.8 0.00 0.00 0.00 52 1011.9
20260906011626 94 131 2.6 5.2 0.00 0.00 0.00 49 1011.8
20260906011126 94 114 2.6 5.2 0.00 0.00 0.00 49 1011.7
20260906010626 94 114 1.7 5.2 0.00 0.00 0.00 48 1011.7
20260906010126 94 105 2.6 5.2 0.00 0.00 0.00 48 1011.7
20260906005625 95 105 0.9 6.1 0.00 0.00 0.00 48 1011.8
20260906005126 95 112 1.7 6.1 0.00 0.00 0.00 47 1011.6
20260906004625 95 120 3.5 6.1 0.00 0.00 0.00 47 1011.7
20260906004125 95 119 0.9 9.6 0.00 0.00 0.00 47 1011.7
20260906003624 96 118 5.2 9.6 0.00 0.00 0.00 46 1011.6
20260906003126 96 142 8.7 9.6 0.00 0.00 0.00 46 1011.6
20260906002624 96 126 7.0 8.7 0.00 0.00 0.00 45 1011.6
20260906002125 96 113 2.6 6.1 0.00 0.00 0.00 45 1011.5
20260906001624 96 110 5.2 6.1 0.00 0.00 0.00 45 1011.7
20260906001128 97 105 2.6 6.1 0.00 0.00 0.00 44 1011.6
20260906000623 97 93 3.5 7.8 0.00 0.00 0.00 44 1011.5
20260906000124 97 103 3.5 7.8 0.00 0.00 0.00 44 1011.5
20260905235622 97 81 6.1 7.8 0.00 0.00 0.00 45 1011.5
20260905235123 97 88 3.5 7.8 0.00 0.00 0.00 45 1011.4
20260905234623 97 177 1.7 6.1 0.00 0.00 0.00 44 1011.4
20260905234123 98 155 5.2 7.8 0.00 0.00 0.00 44 1011.4
20260905233623 98 115 1.7 7.8 0.00 0.00 0.00 44 1011.5
20260905233122 98 112 6.1 7.8 0.00 0.00 0.00 43 1011.4
20260905232622 98 81 1.7 7.8 0.00 0.00 0.00 44 1011.4
20260905232123 98 115 3.5 7.8 0.00 0.00 0.00 43 1011.4